Terminal Aerodrome Forecast
Issued by NWS Columbia, SC

Home | Current Version | Previous Version | Text Only | Print | Product List | Glossary On
Versions: 1 2 3 4 5 6 7 8 9 10 11 12 13 14 15 16 17 18 19 20 21 22 23 24 25 26 27 28 29 30 31 32 33 34 35 36 37 38 39 40 41 42 43 44 45 46 47 48 49 50
296
FTAK31 PAJN 221129
TAFAGS
TAF
PAGS 221129Z 2212/2312 00000KT P6SM OVC080
     FM222200 33005KT 6SM -SN SCT025 OVC050 PROB30 2222/2303 2SM -SN
      BKN015 OVC025
     FM230300 05005KT 3SM -SN BKN012 OVC020
     FM230800 12008KT 2SM -SN SCT007 OVC012
      AMD LTD TO CLD VIS AND WIND=

USA.gov is the U.S. government's official web portal to all federal, state and local government web resources and services.